This demonstration page uses our WeatherBlox Daily Observations layout. Learn more.

39.01783, -85.05884

Hourly Observations for July 11, 2019

Temp ( °F °C ) Dew Point ( °F °C ) Humidity (%) Winds ( mph kmh ) Pressure ( in mb ) Visibility ( mi km ) Precip ( " mm )
12:20 am 00:20 Cloudy 79 26.1 68 20 69 69 N 13 20 29.91 1013 10 16.09344 0 0
12:52 am 00:52 Cloudy 78 25.6 67 19.4 69 69 N 6 9 29.88 1012 10 16.09344 0 0
1:52 am 01:52 Cloudy 74 23.3 67 19.4 79 79 SSW 3 6 29.85 1011 10 16.09344 0 0
2:52 am 02:52 Mostly Clear 74 23.3 67 19.4 79 79 SW 5 7 29.85 1011 10 16.09344 0 0
3:52 am 03:52 Partly Cloudy 73 22.8 68 20 84 84 Calm 29.85 1011 10 16.09344 0 0
4:52 am 04:52 Cloudy 74 23.3 68 20 82 82 SW 5 7 29.85 1011 10 16.09344 0 0
5:52 am 05:52 Cloudy 75 23.9 69 20.6 82 82 Calm 29.83 1010 10 16.09344 0 0
6:52 am 06:52 Mostly Cloudy 73 22.8 69 20.6 87 87 Calm 29.85 1011 9 14.484096 0.001 0.001
7:52 am 07:52 Partly Cloudy 75 23.9 70 21.1 84 84 Calm 29.85 1011 8 12.874752 0.001 0.001
8:52 am 08:52 Mostly Sunny 79 26.1 69 20.6 72 72 W 6 9 29.85 1011 10 16.09344 0 0
9:52 am 09:52 Mostly Sunny 82 27.8 68 20 63 63 W 5 7 29.85 1011 10 16.09344 0 0
10:52 am 10:52 Mostly Cloudy 84 28.9 69 20.6 61 61 WNW 7 11 29.85 1011 10 16.09344 0 0
11:52 am 11:52 Mostly Cloudy 85 29.4 69 20.6 59 59 SW 5 7 29.85 1011 10 16.09344 0 0
12:52 pm 12:52 Mostly Cloudy 87 30.6 70 21.1 57 57 SW 8 13 29.83 1010 10 16.09344 0 0
1:52 pm 13:52 Mostly Cloudy 88 31.1 70 21.1 55 55 W 13 20 29.83 1010 10 16.09344 0 0
2:52 pm 14:52 Partly Cloudy 90 32.2 69 20.6 50 50 W 13 20 29.8 1009 10 16.09344 0 0
3:52 pm 15:52 Mostly Cloudy 90 32.2 67 19.4 47 47 NW 14 22 29.8 1009 10 16.09344 0 0
4:52 pm 16:52 Partly Cloudy 91 32.8 66 18.9 44 44 NW 13 20 29.8 1009 10 16.09344 0 0
5:52 pm 17:52 Mostly Sunny 89 31.7 65 18.3 45 45 NW 16 26 29.8 1009 10 16.09344 0 0
6:52 pm 18:52 Mostly Sunny 88 31.1 63 17.2 43 43 W 14 22 29.8 1009 10 16.09344 0 0
7:52 pm 19:52 Mostly Sunny 85 29.4 64 17.8 50 50 NNW 10 17 29.83 1010 10 16.09344 0 0
8:52 pm 20:52 Mostly Sunny 83 28.3 64 17.8 53 53 NNW 6 9 29.83 1010 10 16.09344 0 0
9:52 pm 21:52 Mostly Clear 81 27.2 63 17.2 54 54 NW 8 13 29.83 1010 10 16.09344 0 0
10:52 pm 22:52 Clear 79 26.1 64 17.8 60 60 NNW 7 11 29.85 1011 10 16.09344 0 0
11:52 pm 23:52 Clear 78 25.6 64 17.8 62 62 NNW 8 13 29.83 1010 10 16.09344 0 0

Powered by AerisWeather